Temperature
18 17 17 17 16 16 16 16 15 15 15 15 14 14 14 13 13 13 13 13 12 12 12 12 12 12 12 12 12 12 12 11 11 11 11 12 12 12 12 12 12 13 13
18 17 17 17 16 16 16 16 15 15 15 14 14 14 14 13 13 13 13 12 12 12 12 12 12 12 12 12 11 11 11 11 11 11 11 11 12 12 12 12 12 12 12
18 17 17 17 16 16 16 16 15 15 15 14 14 14 13 13 13 13 13 12 12 12 12 12 12 11 11 11 11 11 11 11 11 11 11 11 11 11 12 12 12 12 12
17 17 17 17 16 16 16 15 15 15 14 14 14 14 13 13 13 12 12 12 12 12 12 11 11 11 11 11 11 11 11 11 11 11 11 11 11 11 11 11 12 12 12
17 17 17 17 16 16 16 15 15 14 14 14 14 13 13 13 12 12 12 12 12 11 11 11 11 11 11 11 10 10 10 10 10 10 10 10 10 10 10 10 10 11 11
17 17 17 16 16 16 16 15 15 14 14 14 14 13 13 12 12 12 12 12 11 11 11 11 11 11 11 11 10 10 10 10 10 10 10 10 10 10 9 9 9 10 10
17 17 16 16 16 16 15 15 15 14 14 14 13 13 13 12 12 12 12 11 11 11 11 11 11 10 10 10 10 10 10 10 10 9 9 9 9 9 9 9 9 9 9
17 17 16 16 16 15 15 15 14 14 14 14 13 13 13 12 12 12 11 11 11 11 11 10 10 10 10 10 10 10 10 10 9 9 9 9 9 9 9 9 9 9 9
17 17 16 16 16 15 15 15 14 14 14 13 13 13 12 12 12 11 11 11 11 11 11 10 10 10 10 10 9 9 9 9 9 9 9 9 9 9 9 8 9 8 9
17 17 16 16 16 15 15 14 14 14 13 13 13 13 12 12 12 11 11 11 11 11 10 10 10 10 10 9 9 9 9 9 9 9 9 9 9 9 8 8 8 8 8
17 17 16 16 16 15 15 14 14 13 13 13 12 12 12 12 11 11 11 10 10 10 10 10 10 9 9 9 9 9 9 8 8 8 8 8 8 8 8 8 8 8 8
17 16 16 16 15 15 14 14 14 13 13 13 12 12 12 11 11 11 11 10 10 10 10 10 9 9 9 9 9 9 8 8 8 8 8 8 8 8 8 8 8 8 7
16 16 16 15 15 14 14 14 13 13 13 12 12 12 12 11 11 11 10 10 10 10 10 9 9 9 9 9 8 8 8 8 8 7 7 7 7 7 7 7 7 7 7
16 16 15 15 15 14 14 13 13 13 12 12 12 12 11 11 11 11 10 10 10 9 9 9 9 9 8 8 8 8 8 8 7 7 7 7 7 7 7 7 7 7 7
15 15 15 14 14 14 13 13 13 13 12 12 12 11 11 11 11 11 10 10 10 9 9 9 8 8 8 8 8 8 8 7 7 7 7 7 7 7 7 6 6 6 6
15 14 14 14 13 13 13 13 12 12 12 11 11 11 11 11 10 10 10 10 9 9 8 8 8 8 8 8 8 7 7 7 7 7 6 6 6 6 6 6 6 6 6
14 14 13 13 13 13 12 12 12 12 11 11 11 11 10 10 10 10 10 9 9 8 8 8 8 8 8 8 7 7 7 7 6 6 6 6 6 6 6 6 5 5 5
13 13 13 13 12 12 12 12 11 11 11 11 11 10 10 10 10 9 9 9 8 8 8 8 8 8 7 7 7 7 7 6 6 6 6 6 5 5 5 5 5 5 5
12 12 12 12 12 11 11 11 11 10 10 10 10 10 10 9 9 9 9 8 8 8 8 8 7 7 7 7 7 6 6 6 6 5 5 5 5 5 5 5 5 5 4
12 11 11 11 11 11 10 10 10 10 9 9 9 9 9 9 8 8 8 8 8 8 7 7 7 7 7 6 6 6 6 5 5 5 5 5 5 4 4 4 4 4 4
11 11 10 10 10 10 10 9 9 9 9 9 9 8 8 8 8 8 8 7 7 7 7 7 6 6 6 6 6 5 5 5 5 5 4 4 4 4 4 4 4 4 3
10 10 10 10 9 9 9 9 8 8 8 8 8 8 7 7 7 7 7 7 7 7 6 6 6 6 5 5 5 5 5 5 4 4 4 4 3 3 3 3 3 3 3
9 9 9 9 8 8 8 8 8 7 7 7 7 7 7 6 6 6 6 6 6 6 6 6 5 5 5 5 5 4 4 4 4 3 3 3 3 3 3 3 3 3 2
8 8 8 8 8 7 7 7 7 7 6 6 6 6 6 6 5 5 5 5 5 5 5 5 5 5 4 4 4 4 4 3 3 3 3 2 2 2 2 2 2 2 2
8 7 7 7 7 7 6 6 6 6 6 5 5 5 5 5 5 5 5 4 4 4 4 4 4 4 4 4 3 3 3 3 3 2 2 2 2 2 2 2 2 2 1
7 7 6 6 6 6 6 5 5 5 5 5 4 4 4 4 4 4 3 3 3 3 3 3 3 3 3 3 3 3 2 2 2 2 2 1 1 1 1 1 1 1 1
Wind_Speed
7 6 6 5 5 5 4 3 3 2 2 3 2 3 2 3 3 3 3 3 4 3 3 3 3 3 3 3 2 2 2 1 1 3 3 3 4 5 7 8 8 8 8
7 7 7 6 5 5 4 3 3 3 2 3 3 3 3 2 2 3 2 3 2 3 3 3 3 3 3 3 2 2 1 0 1 2 3 3 4 5 5 5 7 7 8
8 8 7 6 6 5 5 4 4 3 3 3 3 3 2 2 2 2 2 2 2 1 1 1 2 2 2 2 2 2 2 2 0 1 3 3 3 4 4 5 5 5 7
8 8 8 8 7 6 5 5 4 4 4 3 3 2 2 2 1 1 2 2 2 2 2 1 1 1 1 1 1 1 1 2 2 1 3 3 3 4 3 4 5 4 4
9 9 9 8 7 6 6 5 4 4 4 3 3 2 1 1 1 2 1 2 2 2 2 2 2 3 2 1 1 1 1 1 1 2 2 3 3 3 4 3 4 5 4
10 9 8 8 7 7 6 5 5 4 3 3 3 2 1 0 1 1 2 1 0 1 1 2 3 3 4 5 4 2 1 1 1 1 2 2 4 3 3 3 3 3 4
10 9 9 8 8 7 7 6 5 4 4 3 2 2 2 2 2 1 1 1 0 1 1 1 2 3 4 2 4 5 4 5 4 2 2 4 4 4 3 3 3 3 4
10 9 9 9 8 7 7 6 5 4 4 4 4 3 3 3 3 2 1 1 0 1 2 2 1 3 3 2 2 3 4 4 5 3 3 5 5 5 4 4 4 4 4
10 10 10 10 9 8 8 7 5 5 4 4 4 4 4 4 5 4 2 1 1 2 2 2 2 2 5 4 2 3 4 5 6 7 8 8 10 10 7 3 3 3 4
11 10 9 10 10 10 9 7 5 5 5 5 4 4 5 5 7 6 4 2 1 2 2 3 5 5 6 5 2 3 4 6 6 6 7 8 8 9 9 5 4 3 3
9 8 8 9 10 9 8 6 5 5 4 4 4 4 5 7 8 8 7 3 3 3 3 3 4 8 8 7 5 4 7 7 5 4 5 5 5 5 5 5 5 5 4
7 8 8 8 8 7 7 6 6 6 5 5 4 5 5 6 7 8 9 8 6 4 5 4 5 9 9 9 7 8 10 8 3 3 4 5 5 5 5 6 7 7 8
7 7 7 7 6 7 8 8 5 6 5 5 5 6 6 5 6 10 10 9 8 5 5 8 9 9 9 7 9 10 8 4 3 4 5 6 6 6 5 5 5 6 7
7 6 5 5 5 5 5 6 6 7 7 6 7 7 6 5 5 5 5 6 7 6 5 7 9 9 7 7 8 6 4 4 4 5 6 6 5 5 5 5 4 4 4
5 5 4 5 5 5 5 6 7 8 8 9 8 7 7 7 9 10 7 6 6 6 4 3 3 3 4 4 5 5 4 4 5 5 5 6 6 6 6 4 4 4 4
4 4 4 4 4 4 4 4 6 7 9 11 11 9 8 11 11 11 12 12 11 9 4 4 5 5 6 6 6 6 5 6 6 6 6 6 6 6 6 5 4 5 6
4 4 3 3 4 4 4 4 4 5 6 7 9 11 11 11 11 11 11 11 10 8 5 6 7 7 7 7 7 6 6 6 6 6 6 6 7 7 6 6 6 5 6
2 2 2 3 4 4 4 5 5 5 5 5 6 9 11 11 11 11 10 6 5 5 5 7 8 8 7 7 7 7 7 6 6 6 6 7 7 6 6 6 6 6 6
2 1 1 1 2 3 3 3 4 5 5 5 5 6 8 9 9 9 7 5 6 7 7 7 8 8 7 7 7 7 7 6 7 6 6 7 7 6 7 7 6 8 7
0 1 0 1 1 1 2 3 3 4 5 5 5 6 4 3 4 5 5 6 7 7 7 8 8 8 7 7 7 7 6 7 7 7 7 7 7 6 7 8 7 6 6
0 1 1 1 1 2 2 3 4 4 4 5 5 6 6 4 6 6 6 6 7 8 8 8 8 7 7 7 7 8 8 8 8 7 7 7 6 6 7 7 7 7 6
0 1 1 2 2 2 3 3 3 4 5 6 5 5 7 4 5 5 6 7 7 7 7 7 7 7 7 7 7 8 8 8 8 7 7 7 6 7 7 6 6 6 6
0 1 2 2 2 3 3 3 3 4 5 5 5 5 4 5 5 6 7 7 7 6 6 6 6 6 6 7 8 7 8 8 8 7 7 7 7 7 7 7 8 8 7
0 1 2 2 2 2 3 3 3 4 4 4 4 4 4 4 5 6 6 6 5 6 6 6 6 8 9 8 7 8 9 10 9 7 8 8 8 8 7 7 8 8 8
1 1 2 2 3 3 3 3 3 4 4 4 4 4 4 5 5 5 5 5 5 6 6 6 6 7 9 10 9 9 11 13 13 11 9 8 9 9 8 8 8 8 8
1 2 2 2 3 3 3 4 4 4 4 4 4 5 5 5 6 6 5 5 5 6 6 6 7 9 10 9 11 12 13 14 14 14 11 8 8 8 8 8 9 9 9
Wind_Direction
171 165 158 162 156 148 144 150 148 129 112 115 111 96 81 64 58 64 48 46 48 26 21 34 14 4 17 10 23 36 43 128 231 300 301 317 340 340 346 354 354 352 348
174 166 165 162 154 151 150 156 145 131 113 114 106 99 91 78 67 70 54 51 52 27 11 24 4 14 16 8 24 20 2 332 185 301 316 327 329 327 332 339 350 347 344
171 167 163 165 163 163 162 156 145 137 121 106 103 102 101 98 87 79 84 67 39 17 8 11 338 17 2 346 360 2 345 1 24 297 309 313 315 328 337 335 340 341 341
171 169 172 178 175 172 166 155 149 144 132 127 126 129 127 121 106 86 81 57 23 2 354 349 320 316 254 278 336 334 355 14 3 347 320 320 319 320 342 340 336 333 330
170 176 184 181 172 167 166 162 154 149 147 146 134 122 115 122 135 115 94 73 35 7 357 348 330 337 334 320 320 293 10 17 353 344 326 330 324 330 329 325 327 320 318
175 183 180 172 169 171 171 165 158 158 151 142 144 146 147 189 141 124 113 103 54 10 338 329 332 354 357 357 350 338 325 303 274 274 286 291 290 287 296 310 315 332 319
180 182 179 174 173 178 174 166 170 174 167 165 178 171 195 230 216 158 109 131 145 249 255 288 329 340 347 346 338 338 330 327 303 249 250 265 272 269 276 294 290 280 275
182 185 184 177 179 179 174 179 183 178 177 185 198 199 209 238 239 239 245 121 177 257 249 235 256 301 308 320 335 335 318 312 304 294 248 258 262 260 247 256 263 278 277
188 190 190 183 181 180 185 191 190 182 191 201 204 203 213 243 249 249 249 169 237 275 269 250 249 265 295 308 322 307 310 308 308 309 301 296 298 299 294 289 295 302 300
198 195 191 186 184 189 194 193 189 190 203 204 214 217 217 232 248 249 241 191 228 264 281 274 275 274 289 296 274 265 284 288 298 309 314 312 308 303 297 263 234 247 269
195 187 187 189 191 193 191 189 188 192 194 207 223 236 234 236 246 247 239 209 211 234 253 266 272 283 288 288 282 255 267 282 278 282 295 299 301 297 289 272 238 221 235
178 181 188 191 196 193 186 191 188 186 195 214 227 249 253 249 244 247 244 238 226 218 238 248 261 277 281 284 283 282 288 298 288 291 295 292 289 287 283 278 267 250 242
168 182 190 192 196 188 188 193 193 194 203 219 224 240 255 252 251 249 247 247 241 232 240 250 261 271 278 282 281 287 292 285 276 279 279 278 272 270 276 282 280 275 271
173 186 186 187 195 197 197 197 199 205 212 220 226 237 248 253 248 244 242 250 249 250 253 261 269 277 274 271 282 286 273 260 256 256 265 269 276 279 275 267 267 275 279
174 185 188 190 192 202 209 212 211 217 213 215 223 225 231 247 249 236 228 234 233 237 236 248 262 275 279 278 278 276 271 272 269 259 261 271 276 276 273 263 255 259 259
176 190 194 195 200 206 215 244 248 239 241 234 233 231 236 241 251 244 240 241 241 236 224 240 249 252 256 260 264 268 266 264 261 259 261 263 267 270 273 267 255 252 259
178 193 197 200 204 210 214 222 254 277 268 255 248 245 245 249 249 247 245 244 244 235 231 243 248 251 252 253 253 253 257 259 258 257 260 262 262 264 264 263 259 256 256
163 184 192 209 214 218 224 229 232 239 259 269 264 254 252 252 252 251 249 246 257 243 237 245 251 252 251 252 252 251 254 258 257 257 258 260 258 260 264 262 257 253 256
153 187 201 212 224 232 238 241 243 243 247 258 272 276 264 261 260 260 247 237 243 246 245 248 250 252 252 251 252 251 250 252 254 255 259 259 259 257 261 260 255 254 253
189 266 177 194 241 269 262 253 252 251 253 256 260 264 269 269 267 265 250 244 245 249 249 251 253 251 250 250 252 252 253 253 255 255 258 259 259 257 260 257 251 248 250
215 306 332 304 262 259 261 259 258 255 257 260 262 265 262 256 254 256 254 249 247 250 251 251 252 251 249 249 250 250 250 255 254 254 256 257 257 260 262 257 251 250 252
237 255 263 260 267 267 267 264 267 266 266 268 273 276 272 263 258 258 258 258 255 253 251 250 250 250 247 247 249 249 252 255 255 253 254 256 256 259 262 261 254 251 251
316 300 294 285 280 285 288 280 272 269 272 274 276 278 275 269 269 266 265 264 262 260 255 251 254 260 259 258 253 247 250 253 252 249 251 258 260 259 258 259 257 254 253
306 289 289 292 296 290 287 288 285 281 280 281 284 287 285 282 284 283 280 279 277 273 270 264 259 261 263 266 265 259 255 258 259 254 249 255 260 260 258 259 258 253 253
315 305 299 294 292 289 290 289 288 288 289 287 286 289 292 293 293 293 293 293 292 290 286 283 280 279 277 273 272 272 270 268 267 266 260 255 256 255 256 258 261 259 254
330 318 309 304 300 299 297 295 294 294 294 294 293 293 293 292 291 291 292 292 293 290 289 288 284 283 283 283 279 277 278 279 276 271 266 259 255 257 257 259 260 259 256
Height
1558 1560 1561 1561 1562 1562 1563 1563 1562 1562 1562 1561 1561 1560 1559 1558 1557 1556 1555 1554 1553 1552 1551 1550 1548 1547 1546 1545 1544 1543 1542 1541 1540 1539 1538 1537 1535 1534 1533 1532 1530 1529 1529
1556 1558 1559 1560 1560 1561 1561 1561 1561 1561 1561 1560 1560 1559 1558 1557 1556 1555 1554 1553 1552 1551 1550 1549 1548 1546 1545 1544 1543 1542 1541 1540 1539 1537 1536 1535 1534 1532 1531 1529 1528 1527 1526
1554 1555 1557 1558 1558 1559 1559 1559 1560 1560 1559 1559 1559 1558 1557 1556 1555 1554 1553 1552 1551 1550 1549 1548 1547 1545 1544 1543 1542 1541 1540 1539 1537 1536 1534 1533 1532 1530 1529 1528 1526 1525 1524
1551 1553 1554 1555 1556 1557 1557 1558 1558 1558 1558 1558 1557 1556 1556 1555 1554 1553 1552 1551 1550 1549 1548 1547 1546 1544 1543 1542 1540 1539 1538 1537 1536 1534 1533 1531 1530 1528 1527 1525 1523 1523 1521
1549 1550 1552 1553 1554 1555 1555 1556 1556 1556 1556 1556 1555 1555 1554 1554 1553 1552 1551 1549 1548 1548 1547 1546 1544 1543 1542 1540 1539 1538 1536 1535 1534 1532 1531 1529 1528 1526 1525 1523 1521 1520 1519
1545 1547 1549 1551 1552 1552 1553 1554 1554 1554 1554 1554 1553 1553 1552 1552 1551 1550 1549 1548 1547 1546 1545 1544 1543 1542 1540 1539 1537 1536 1535 1533 1532 1530 1529 1527 1526 1524 1523 1521 1519 1517 1515
1542 1544 1546 1548 1549 1550 1551 1551 1551 1551 1552 1552 1551 1551 1550 1550 1549 1548 1547 1546 1545 1544 1543 1542 1541 1540 1539 1537 1535 1534 1533 1531 1530 1529 1527 1525 1523 1522 1520 1518 1517 1515 1513
1539 1541 1543 1544 1546 1547 1548 1548 1549 1549 1549 1549 1549 1549 1548 1548 1547 1546 1545 1544 1543 1542 1541 1540 1539 1538 1536 1535 1533 1532 1530 1529 1527 1525 1524 1522 1521 1519 1517 1516 1514 1512 1511
1535 1537 1539 1541 1542 1543 1544 1545 1546 1546 1546 1546 1546 1546 1546 1545 1545 1544 1543 1542 1541 1540 1539 1538 1536 1535 1534 1532 1531 1529 1527 1526 1524 1522 1521 1519 1517 1516 1514 1512 1510 1508 1506
1532 1534 1536 1537 1539 1540 1541 1542 1542 1543 1543 1543 1543 1543 1543 1542 1542 1541 1540 1539 1538 1536 1536 1534 1533 1532 1530 1529 1527 1525 1523 1522 1520 1518 1517 1515 1513 1512 1510 1509 1507 1505 1503
1529 1531 1533 1534 1535 1536 1537 1538 1539 1539 1540 1540 1540 1540 1539 1539 1538 1538 1537 1535 1534 1533 1532 1531 1530 1528 1527 1525 1524 1522 1520 1518 1516 1514 1512 1510 1509 1507 1506 1504 1503 1501 1499
1526 1527 1529 1530 1532 1532 1533 1534 1535 1535 1536 1536 1536 1535 1535 1535 1534 1533 1533 1532 1530 1529 1528 1527 1525 1524 1523 1521 1519 1517 1516 1514 1512 1510 1507 1505 1504 1502 1501 1500 1498 1497 1495
1522 1524 1525 1527 1528 1528 1529 1530 1530 1531 1531 1531 1531 1531 1530 1530 1530 1529 1528 1527 1526 1524 1523 1522 1521 1519 1518 1516 1515 1513 1511 1509 1507 1505 1502 1500 1499 1497 1496 1494 1493 1491 1490
1519 1520 1521 1522 1523 1524 1525 1525 1526 1526 1526 1526 1526 1526 1526 1525 1525 1524 1523 1522 1521 1519 1518 1517 1516 1514 1513 1511 1510 1508 1506 1504 1502 1500 1497 1495 1494 1492 1490 1489 1487 1485 1483
1516 1517 1518 1518 1519 1519 1520 1521 1521 1521 1522 1521 1521 1521 1520 1519 1519 1519 1518 1516 1515 1514 1512 1511 1510 1508 1507 1505 1504 1502 1500 1499 1496 1494 1492 1490 1488 1486 1484 1483 1481 1479 1477
1512 1513 1514 1514 1515 1515 1515 1516 1516 1516 1516 1516 1516 1516 1515 1515 1514 1513 1512 1511 1510 1509 1507 1505 1503 1502 1500 1499 1497 1495 1494 1492 1490 1488 1486 1484 1482 1480 1478 1476 1475 1473 1471
1509 1510 1510 1511 1511 1511 1511 1511 1511 1511 1511 1511 1510 1510 1509 1509 1508 1507 1506 1504 1504 1502 1500 1498 1497 1495 1494 1492 1491 1489 1487 1486 1484 1482 1480 1477 1475 1473 1471 1469 1468 1466 1464
1506 1506 1507 1507 1507 1507 1507 1506 1506 1505 1505 1504 1504 1504 1503 1502 1501 1500 1499 1498 1496 1495 1493 1491 1490 1488 1487 1485 1484 1482 1480 1478 1477 1475 1472 1470 1468 1466 1464 1462 1460 1459 1457
1503 1503 1503 1503 1503 1503 1502 1502 1501 1500 1499 1499 1498 1497 1497 1495 1494 1493 1492 1491 1489 1487 1486 1484 1483 1481 1479 1478 1476 1475 1473 1471 1469 1467 1465 1463 1461 1459 1456 1454 1453 1451 1450
1499 1499 1499 1499 1498 1498 1497 1497 1496 1495 1494 1493 1492 1491 1490 1489 1487 1486 1485 1483 1481 1480 1478 1477 1475 1474 1472 1470 1469 1467 1465 1463 1461 1459 1457 1455 1453 1451 1449 1447 1445 1444 1442
1496 1496 1496 1495 1494 1493 1493 1492 1491 1490 1488 1487 1486 1485 1484 1483 1481 1479 1478 1476 1474 1472 1471 1469 1467 1466 1464 1463 1461 1459 1457 1455 1454 1452 1450 1448 1446 1443 1441 1439 1437 1436 1435
1492 1492 1491 1490 1490 1489 1488 1487 1486 1485 1483 1482 1480 1479 1478 1476 1474 1472 1470 1469 1467 1465 1463 1461 1459 1458 1456 1455 1453 1451 1449 1447 1446 1444 1441 1440 1438 1436 1433 1431 1430 1428 1427
1488 1488 1487 1486 1485 1484 1483 1482 1481 1479 1478 1476 1475 1473 1471 1469 1467 1465 1463 1461 1459 1457 1456 1454 1451 1449 1448 1446 1445 1443 1441 1439 1438 1436 1433 1431 1429 1427 1426 1424 1422 1420 1419
1485 1484 1483 1482 1481 1479 1478 1477 1476 1474 1473 1471 1469 1467 1465 1463 1461 1459 1457 1454 1452 1450 1448 1446 1444 1442 1440 1438 1436 1434 1433 1431 1429 1427 1425 1423 1421 1419 1417 1415 1413 1412 1411
1481 1480 1479 1477 1476 1475 1473 1472 1471 1469 1468 1466 1464 1462 1460 1457 1455 1452 1450 1447 1445 1443 1440 1438 1436 1434 1431 1429 1427 1425 1424 1422 1420 1418 1416 1414 1412 1410 1409 1407 1405 1404 1403
1477 1476 1475 1473 1472 1470 1469 1467 1465 1464 1462 1460 1458 1456 1453 1451 1448 1446 1443 1440 1438 1435 1433 1430 1428 1426 1423 1421 1419 1417 1415 1413 1411 1409 1407 1405 1404 1402 1400 1398 1397 1396 1395